sat.trackr.live / text

‹ back to catalog

STARLINK-33968

NORAD 63883 · 2025-094V

PAYLOAD ACTIVE UNKNOWN

§ Identity

Operator
Country
US
Launch date
2025-05-10
Launch site
AFWTR
Launch vehicle
Mass (kg)
RCS (m²)

Purposes: comms

External: N2YO · Heavens-Above · Gunter

§ Orbital elements

Epoch: 2026-05-25T02:17:04.739136Z

Period
96.11 min
Inclination
70.0025°
Eccentricity
0.0002680
Mean motion
14.98352519 rev/d
Perigee alt
570.1 km
Apogee alt
573.8 km
Semi-major
6,950.1 km
B*
3.2743e-4
RAAN
41.9838°
Arg perigee
266.7330°
Mean anomaly
93.3523°
Rev number
5,864

§ Raw data

STARLINK-339681 63883U 25094V   26145.09519374  .00003818  00000+0  32743-3 0  99952 63883  70.0025  41.9838 0002680 266.7330  93.3523 14.98352519 58645

JSON: /api/v1/satellites/63883 · /tle

For live sub-satellite position, see the globe view (requires WebGL).

§ Visibility from observer

Set your observer location to see the next 7 days of passes ≥ 10°. The values pass through the URL so the page stays shareable.

No JS? Fill the form by hand. The geolocation button needs JavaScript.